User: anonymous   Login
Location: Oshawa
(43.9000°N, 78.8670°W)
Time: 05:31:42
(UTC-05:00)
Language:

Cosmos 1953 Rocket - Orbit

View from above orbital plane
View from above orbital plane
View from above satellite
View from above satellite

Ground track
Ground track

The orbit data is extracted from the following two-line orbital elements,

1 19211U 88050B   17022.86200470  .00000077  00000-0  65144-5 0  9993
2 19211  82.5279 338.3302 0020574 234.0978 156.6288 14.82942936545257
Epoch (UTC): 22 January 2017 20:41:17
Eccentricity: 0.0020574
inclination: 82.5279°
perigee height: 605 km
apogee height: 634 km
right ascension of ascending node: 338.3302°
argument of perigee: 234.0978°
revolutions per day: 14.82942936
mean anomaly at epoch: 156.6288°
orbit number at epoch: 54525

The dashed part of the orbit path shows where the satellite is in the earth's shadow,  

DLR